Date String (YYYY-MM-DD hh:mm:ss) UTC,Instrument flags,absolute air pressure of the measurement (hPa),sample flow rate (lpm),inlet stack bypass flow (lpm),air temperature of the measurement (°C),ambient temperature measured by the external sensor (°C),aerosol sample conditioner tube jacket temperature (°C),OPC LED temperature (°C),internal box temperature (°C),relative humidity of the measurement (%),span deviation,mass concentration of particles derived from Lorenz-Mie calculation of OPC scattering (μg/m³),mass concentration of particles derived from Lorenz-Mie calculation of OPC scattering (μg/m³),mass concentration of particles derived from Lorenz-Mie calculation of OPC scattering (μg/m³)
DateTimeUTC,F1_M11,P_M11,Q1_M11,Q2_M11,T1_M11,T2_M11,T3_M11,T4_M11,T5_M11,U1_M11,ZSPAN_M11,X0_M11,X2_M11,X1_M11
2023-10-12 08:00:00,SystemResetWarning,0814.6,5.01,000.00,029.3,027.9,000.0,037.8,030.9,22.0,0000.0,0001.92,0001.21,0000.95
2023-10-12 08:01:00,SystemResetWarning,0814.6,5.00,000.00,029.3,027.9,000.0,037.8,031.0,22.1,0000.0,0001.88,0001.22,0000.96
2023-10-12 08:02:00,SystemResetWarning,0814.6,4.99,000.00,029.3,027.9,000.0,037.8,031.0,22.1,0000.0,0001.90,0001.20,0000.96
2023-10-12 08:03:00,SystemResetWarning,0814.6,5.00,000.00,029.3,027.9,000.0,037.8,031.0,22.1,0000.0,0001.90,0001.20,0000.95
2023-10-12 08:04:00,SystemResetWarning,0814.6,5.00,000.00,029.3,027.9,000.0,037.8,031.0,22.2,0000.0,0002.02,0001.26,0000.97
2023-10-12 08:05:00,SystemResetWarning,0814.5,5.00,000.00,029.3,027.9,000.0,037.8,031.0,22.1,0000.0,0002.05,0001.27,0000.98
2023-10-12 08:06:00,SystemResetWarning,0814.5,5.00,000.00,029.3,027.9,000.0,037.8,031.0,22.1,0000.0,0002.17,0001.26,0000.98
2023-10-12 08:07:00,SystemResetWarning,0814.5,5.00,000.00,029.3,027.9,000.0,037.8,031.0,22.1,0000.0,0002.91,0001.27,0000.98
2023-10-12 08:08:00,SystemResetWarning,0814.5,5.00,000.00,029.3,027.9,000.0,037.8,031.0,22.1,0000.0,0002.88,0001.28,0000.99
2023-10-12 08:09:00,SystemResetWarning,0814.5,5.00,000.00,029.3,027.8,000.0,037.8,031.0,22.1,0000.0,0002.92,0001.31,0001.00
2023-10-12 08:10:00,SystemResetWarning,0814.5,5.00,000.00,029.3,027.8,000.0,037.8,031.0,22.0,0000.0,0003.00,0001.35,0001.01
2023-10-12 08:11:00,SystemResetWarning,0814.5,5.00,000.00,029.3,027.8,000.0,037.8,030.9,21.9,0000.0,0002.98,0001.35,0001.02
2023-10-12 08:12:00,SystemResetWarning,0814.5,5.00,000.00,029.3,027.8,000.0,037.8,030.9,21.8,0000.0,0002.93,0001.35,0001.03
2023-10-12 08:13:00,SystemResetWarning,0814.4,5.00,000.00,029.3,027.8,000.0,037.8,030.9,21.8,0000.0,0002.93,0001.39,0001.05
2023-10-12 08:14:00,SystemResetWarning,0814.4,5.00,000.00,029.3,027.8,000.0,037.8,030.9,21.7,0000.0,0003.04,0001.44,0001.07
2023-10-12 08:15:00,SystemResetWarning,0814.3,5.00,000.00,029.3,027.8,000.0,037.8,030.9,21.6,0000.0,0003.06,0001.43,0001.07
2023-10-12 08:16:00,SystemResetWarning,0814.4,4.99,000.00,029.3,027.8,000.0,037.8,030.9,21.6,0000.0,0002.97,0001.40,0001.09
2023-10-12 08:17:00,SystemResetWarning,0814.3,5.00,000.00,029.3,027.8,000.0,037.8,030.9,21.6,0000.0,0003.03,0001.43,0001.09
2023-10-12 08:18:00,SystemResetWarning,0814.3,5.01,000.00,029.3,027.8,000.0,037.8,030.9,21.5,0000.0,0002.34,0001.45,0001.10
2023-10-12 08:19:00,SystemResetWarning,0814.3,5.01,000.00,029.3,027.8,000.0,037.8,030.9,21.5,0000.0,0002.39,0001.50,0001.12
2023-10-12 08:20:00,SystemResetWarning,0814.4,4.99,000.00,029.3,027.8,000.0,037.8,030.9,21.5,0000.0,0002.35,0001.52,0001.14
2023-10-12 08:21:00,SystemResetWarning,0814.4,4.99,000.00,029.3,027.8,000.0,037.8,030.9,21.5,0000.0,0002.34,0001.55,0001.17
2023-10-12 08:22:00,SystemResetWarning,0814.4,5.00,000.00,029.3,027.8,000.0,037.8,030.9,21.5,0000.0,0002.45,0001.61,0001.21
2023-10-12 08:23:00,SystemResetWarning,0814.5,4.99,000.00,029.3,027.8,000.0,037.8,030.9,21.4,0000.0,0002.81,0001.68,0001.24
2023-10-12 08:24:00,SystemResetWarning,0814.6,5.01,000.00,029.3,027.7,000.0,037.8,030.9,21.4,0000.0,0003.32,0001.72,0001.27
2023-10-12 08:25:00,SystemResetWarning,0814.6,5.01,000.00,029.3,027.7,000.0,037.8,030.9,21.5,0000.0,0003.36,0001.74,0001.31
2023-10-12 08:26:00,SystemResetWarning,0814.6,5.00,000.00,029.3,027.7,000.0,037.8,030.8,21.5,0000.0,0003.34,0001.77,0001.34
2023-10-12 08:27:00,SystemResetWarning,0814.5,5.00,000.00,029.3,027.7,000.0,037.7,030.8,21.6,0000.0,0003.55,0001.84,0001.37
2023-10-12 08:28:00,SystemResetWarning,0814.5,4.99,000.00,029.2,027.7,000.0,037.7,030.8,21.6,0000.0,0003.75,0001.92,0001.43
2023-10-12 08:29:00,SystemResetWarning,0814.5,4.99,000.00,029.2,027.7,000.0,037.7,030.8,21.6,0000.0,0003.75,0001.98,0001.48
2023-10-12 08:30:00,SystemResetWarning,0814.5,5.00,000.00,029.2,027.6,000.0,037.7,030.8,21.6,0000.0,0003.87,0002.04,0001.53
2023-10-12 08:31:00,SystemResetWarning,0814.5,5.00,000.00,029.2,027.6,000.0,037.7,030.7,21.7,0000.0,0004.09,0002.14,0001.59
2023-10-12 08:32:00,SystemResetWarning,0814.5,5.01,000.00,029.2,027.6,000.0,037.7,030.7,21.8,0000.0,0004.14,0002.19,0001.62
2023-10-12 08:33:00,SystemResetWarning,0814.5,5.00,000.00,029.2,027.6,000.0,037.7,030.7,21.8,0000.0,0004.14,0002.20,0001.65
2023-10-12 08:34:00,SystemResetWarning,0814.5,4.99,000.00,029.2,027.6,000.0,037.7,030.7,21.7,0000.0,0004.20,0002.26,0001.70
2023-10-12 08:35:00,SystemResetWarning,0814.5,5.00,000.00,029.1,027.6,000.0,037.7,030.7,21.6,0000.0,0003.77,0002.32,0001.76
2023-10-12 08:36:00,SystemResetWarning,0814.5,5.00,000.00,029.1,027.5,000.0,037.7,030.7,21.5,0000.0,0004.82,0002.39,0001.83
2023-10-12 08:37:00,SystemResetWarning,0814.5,5.00,000.00,029.1,027.5,000.0,037.7,030.6,21.4,0000.0,0006.20,0002.49,0001.91
2023-10-12 08:38:00,SystemResetWarning,0814.5,5.00,000.00,029.1,027.5,000.0,037.7,030.6,21.4,0000.0,0006.52,0002.57,0002.00
2023-10-12 08:39:00,SystemResetWarning,0814.4,5.01,000.00,029.1,027.5,000.0,037.7,030.6,21.3,0000.0,0006.66,0002.64,0002.06
2023-10-12 08:40:00,SystemResetWarning,0814.5,5.01,000.00,029.1,027.5,000.0,037.7,030.6,21.4,0000.0,0006.83,0002.70,0002.13
2023-10-12 08:41:00,SystemResetWarning,0814.4,5.01,000.00,029.1,027.5,000.0,037.6,030.7,21.5,0000.0,0006.82,0002.73,0002.17
2023-10-12 08:42:00,SystemResetWarning,0814.4,5.00,000.00,029.1,027.5,000.0,037.6,030.7,21.6,0000.0,0006.86,0002.72,0002.20
2023-10-12 08:43:00,SystemResetWarning,0814.4,4.99,000.00,029.1,027.5,000.0,037.6,030.7,21.6,0000.0,0006.92,0002.76,0002.24
2023-10-12 08:44:00,SystemResetWarning,0814.3,4.99,000.00,029.1,027.5,000.0,037.6,030.7,21.6,0000.0,0006.99,0002.79,0002.27
2023-10-12 08:45:00,SystemResetWarning,0814.4,5.00,000.00,029.1,027.5,000.0,037.6,030.7,21.7,0000.0,0007.07,0002.81,0002.27
2023-10-12 08:46:00,SystemResetWarning,0814.3,5.00,000.00,029.1,027.5,000.0,037.6,030.7,22.1,0000.0,0007.41,0002.84,0002.27
2023-10-12 08:47:00,SystemResetWarning,0814.3,5.00,000.00,029.1,027.5,000.0,037.6,030.7,22.0,0000.0,0006.40,0002.79,0002.25
2023-10-12 08:48:00,SystemResetWarning,0814.3,5.00,000.00,029.1,027.5,000.0,037.6,030.7,21.8,0000.0,0005.06,0002.73,0002.21
2023-10-12 08:49:00,SystemResetWarning,0814.3,5.01,000.00,029.1,027.5,000.0,037.6,030.6,21.9,0000.0,0004.65,0002.66,0002.17
2023-10-12 08:50:00,SystemResetWarning,0814.3,5.00,000.00,029.0,027.5,000.0,037.6,030.6,21.9,0000.0,0004.43,0002.62,0002.14
2023-10-12 08:51:00,SystemResetWarning,0814.3,5.00,000.00,029.0,027.5,000.0,037.6,030.6,22.0,0000.0,0004.32,0002.54,0002.08
2023-10-12 08:52:00,SystemResetWarning,0814.3,5.00,000.00,029.0,027.5,000.0,037.6,030.6,21.9,0000.0,0004.53,0002.52,0002.04
2023-10-12 08:53:00,SystemResetWarning,0814.3,5.00,000.00,029.0,027.4,000.0,037.6,030.5,21.8,0000.0,0004.36,0002.45,0002.01
2023-10-12 08:54:00,SystemResetWarning,0814.3,5.00,000.00,029.0,027.4,000.0,037.6,030.5,21.8,0000.0,0004.23,0002.39,0001.96
2023-10-12 08:55:00,SystemResetWarning,0814.3,5.00,000.00,029.0,027.4,000.0,037.5,030.5,21.8,0000.0,0004.12,0002.32,0001.91
2023-10-12 08:56:00,SystemResetWarning,0814.3,5.00,000.00,029.0,027.4,000.0,037.5,030.5,21.7,0000.0,0004.10,0002.28,0001.88
2023-10-12 08:57:00,SystemResetWarning,0814.3,5.00,000.00,029.0,027.4,000.0,037.5,030.5,21.6,0000.0,0003.45,0002.22,0001.84
2023-10-12 08:58:00,SystemResetWarning,0814.3,4.99,000.00,029.0,027.4,000.0,037.5,030.6,21.5,0000.0,0003.41,0002.17,0001.80
2023-10-12 08:59:00,SystemResetWarning,0814.3,4.99,000.00,029.0,027.4,000.0,037.5,030.6,21.4,0000.0,0003.44,0002.16,0001.77
